User: anonymous   Login
Location: Unspecified
(0.0000°N, 0.0000°E)
Time: 21:48:54
(UTC+00:00)
Language:

Gonets-D1 - Orbit

View from above orbital plane
View from above orbital plane
View from above satellite
View from above satellite

Ground track
Ground track

The orbit data is extracted from the following two-line orbital elements,

1 24727U 97006C   17117.71998706 +.00000028 +00000-0 +97767-4 0  9998
2 24727 082.6071 217.5456 0001797 105.6315 062.9641 12.62317257930526
Epoch (UTC): 27 April 2017 17:16:46
Eccentricity: 0.0001797
inclination: 82.6071°
perigee height: 1412 km
apogee height: 1415 km
right ascension of ascending node: 217.5456°
argument of perigee: 105.6315°
revolutions per day: 12.62317257
mean anomaly at epoch: 62.9641°
orbit number at epoch: 93052

The dashed part of the orbit path shows where the satellite is in the earth's shadow,  

DLR